Terug naar catalogus

MEASAT 3A

ActiefCommunicatieGEO
NORAD 35362·PAYLOAD·🇲🇾 Malaysia

Gelanceerd Jun 21, 2009 vanaf Baikonur Cosmodrome

Loading…

TLE

VersSource: Space-Track

Epoch: Sep 14, 2026, 10:33 UTC

1 35362U 09032A   26257.44007337 -.00000119  00000-0  00000-0 0  9995
2 35362   0.0417 326.6930 0001889 213.1886 131.9738  1.00271585  8927

Volg MEASAT 3A in realtime met AllMySat

Download on the App Store